Wind_Speed
16 17 18 18 18 19 20 21 22 23 24 25 25 26 26 27 27 27 27 27 27 28 28 29 29 30 30 31 31 32 33 33 33 34 35 35 35 35 36 36 36 36
13 15 16 16 17 17 17 18 19 20 21 22 23 23 24 25 25 26 26 26 26 26 27 27 28 28 29 29 30 30 31 32 32 33 33 33 34 34 35 35 35 36
11 12 14 14 15 15 15 16 16 17 18 19 20 20 21 22 23 24 25 25 25 26 26 26 27 27 27 28 28 29 29 30 30 31 31 31 32 32 33 34 34 35
7 9 11 12 13 14 14 14 14 14 15 16 17 17 18 19 20 21 22 23 23 24 25 25 25 26 26 26 27 27 28 28 29 29 29 30 30 30 31 32 32 33
4 5 7 8 10 11 13 13 13 13 13 14 14 15 15 16 17 18 19 20 21 21 22 22 23 23 24 25 26 26 26 27 27 27 28 28 28 28 29 30 31 31
1 1 3 4 6 8 10 11 12 13 13 12 12 12 13 13 13 14 15 16 17 18 19 19 20 20 21 22 23 24 24 25 25 25 25 25 26 26 27 27 28 29
2 1 2 2 3 4 7 9 10 12 13 13 12 11 10 10 10 11 12 12 13 15 16 17 17 18 18 18 19 20 20 21 21 22 22 23 23 24 24 24 25 26
5 4 3 4 5 5 5 6 8 10 11 12 12 11 10 9 8 8 9 10 11 12 13 14 14 14 14 14 14 15 15 16 17 18 18 19 20 20 21 22 22 23
9 7 6 7 8 8 8 7 7 8 9 11 12 12 11 10 8 7 7 8 9 9 9 9 10 10 10 10 11 11 12 12 13 14 15 16 17 17 18 19 20 20
12 11 10 10 10 11 11 11 10 9 9 10 10 11 11 11 10 8 7 6 6 5 4 3 5 7 8 8 9 10 10 10 10 11 13 14 14 15 16 16 17 18
15 14 14 13 13 13 14 14 14 13 12 12 11 11 11 12 12 11 10 7 3 3 4 3 1 3 4 6 7 8 9 9 10 10 11 12 13 13 13 14 14 15
19 18 17 17 16 15 15 16 16 16 16 16 15 14 13 13 12 12 11 9 8 8 7 6 5 5 4 4 4 6 7 9 9 9 9 11 12 12 12 11 11 12
23 23 22 21 20 19 18 18 18 18 19 19 19 19 18 17 16 14 13 12 12 12 11 9 8 8 9 8 7 6 7 8 9 8 7 7 8 9 9 9 8 8
26 26 26 24 23 22 21 20 19 20 21 21 21 21 21 21 20 18 16 15 15 15 14 12 11 10 11 12 11 10 8 8 9 8 6 6 6 6 7 7 6 5
28 28 28 28 26 25 23 22 21 22 22 21 21 21 22 22 22 22 21 19 19 18 17 16 15 14 14 14 14 13 12 11 10 9 8 8 7 7 8 7 7 5
30 31 31 31 30 28 27 26 26 26 25 23 22 21 22 22 22 23 24 23 22 21 20 19 19 19 18 17 16 15 15 14 14 13 12 11 11 11 10 9 8 8
33 34 35 34 33 32 32 32 32 31 29 26 24 23 22 22 22 23 25 26 25 24 23 23 22 21 21 21 20 18 17 17 16 15 15 15 15 15 13 12 11 11
32 35 37 38 37 35 35 36 36 34 32 29 27 26 25 23 23 23 24 25 26 26 26 27 26 25 23 22 22 22 20 19 18 17 17 18 18 18 17 15 14 14
34 34 36 38 38 37 37 38 39 38 36 33 32 30 28 25 24 23 24 25 27 28 29 30 29 27 25 24 24 24 23 22 22 21 20 20 20 20 19 19 18 18
40 38 37 37 36 37 38 39 40 40 39 38 36 35 33 30 26 25 26 28 29 30 31 32 29 26 25 26 27 27 27 27 26 25 24 24 23 22 21 21 22 23
44 42 39 38 37 37 38 39 40 41 41 40 40 39 38 35 32 30 30 33 33 32 32 32 31 29 29 30 30 30 30 30 30 29 28 28 27 26 24 23 23 24
46 45 43 42 42 41 41 42 42 42 43 43 43 44 44 40 37 35 35 37 37 35 34 34 33 34 34 33 34 34 33 33 33 32 32 32 31 29 27 26 25 25
48 48 48 47 47 47 45 44 44 44 45 45 45 46 46 43 41 39 39 41 41 38 37 36 35 36 36 36 37 38 37 35 35 35 34 34 33 31 28 27 27 27
50 52 52 50 51 52 50 48 47 45 42 42 43 45 44 42 43 43 43 45 45 43 41 39 37 39 40 39 38 39 37 35 35 37 38 37 37 35 32 30 30 31
54 55 55 53 51 53 53 52 50 45 41 41 43 45 44 44 46 47 47 48 48 47 45 42 40 41 43 41 37 36 34 33 34 37 40 41 42 41 38 35 34 34
58 59 59 56 53 54 56 57 55 51 48 48 49 49 48 48 50 50 49 50 51 50 48 47 45 45 45 42 37 35 34 33 34 36 38 40 41 40 39 38 37 36
Wind_Direction
49 51 54 56 57 60 63 65 66 66 66 65 65 64 64 65 66 69 71 71 70 70 69 68 67 66 65 64 65 66 66 67 67 67 67 68 68 68 68 69 69 69
40 41 44 47 49 52 54 58 62 64 64 64 63 64 63 63 62 63 65 67 68 68 68 67 67 66 65 64 63 63 63 64 64 65 65 65 65 66 67 68 68 69
37 34 34 35 38 40 43 46 51 55 58 59 60 61 61 62 61 61 61 62 63 65 65 64 64 64 63 63 61 61 61 61 62 63 63 63 63 64 65 66 67 67
37 31 28 26 25 26 28 32 37 42 45 49 53 56 57 58 59 60 61 60 60 61 62 62 62 62 62 61 60 59 58 58 59 60 61 62 63 63 63 64 65 65
47 32 25 20 16 15 14 17 21 25 29 34 40 46 50 54 56 57 59 60 59 59 60 61 60 60 60 60 60 58 57 57 57 57 58 59 60 62 62 63 63 63
116 40 15 9 6 5 3 4 6 8 11 15 23 30 37 44 50 54 57 60 61 60 58 58 59 59 59 57 57 57 56 55 55 56 56 56 57 58 60 61 62 61
233 252 297 310 329 340 345 348 352 355 357 359 3 10 19 29 39 45 49 54 59 62 60 57 55 57 58 58 56 56 55 54 54 54 55 55 55 56 56 58 60 61
259 269 288 292 287 287 301 319 329 337 343 345 347 350 357 7 18 30 38 42 49 58 63 62 57 53 54 58 60 60 59 58 56 55 54 54 54 54 54 55 57 60
264 271 285 297 294 285 281 285 296 310 321 328 332 334 338 343 351 2 16 29 43 52 63 73 71 57 46 46 49 53 55 57 56 56 56 56 56 55 54 54 55 58
271 275 281 289 294 293 288 284 284 288 295 305 312 317 322 327 329 333 345 6 36 47 44 70 85 70 49 35 30 34 39 42 44 47 50 54 56 56 55 54 53 55
277 279 281 283 286 292 294 291 289 289 289 290 293 297 303 312 316 318 324 331 334 326 327 331 14 58 47 31 19 14 15 19 25 32 42 49 50 49 49 49 49 49
269 271 272 275 276 280 284 288 287 288 288 288 289 289 289 293 298 302 308 308 298 301 311 308 298 295 310 336 351 350 349 352 358 12 32 46 50 47 42 39 39 40
264 266 267 269 271 269 267 273 279 279 279 281 284 285 285 285 284 285 289 290 289 294 301 302 297 294 296 300 301 306 321 328 330 342 2 23 36 40 38 34 30 29
263 266 268 269 270 266 261 265 274 276 274 274 277 279 279 278 277 277 278 279 281 284 288 293 296 294 295 298 291 281 279 291 304 318 331 341 358 13 16 13 13 15
265 267 267 268 269 268 263 264 270 274 271 268 271 275 276 274 272 271 271 272 275 278 279 283 288 288 287 290 288 277 265 265 279 294 305 315 324 338 347 348 346 347
268 268 267 267 268 268 266 264 266 270 269 265 265 270 272 273 274 273 269 265 266 271 275 277 279 281 282 281 280 276 268 264 268 277 286 296 305 311 320 326 323 321
272 272 269 266 266 266 265 264 265 268 269 268 268 270 271 272 276 278 276 269 264 264 268 272 276 280 283 283 279 276 272 268 268 273 279 285 289 291 296 302 304 304
269 271 269 267 266 265 264 263 264 266 268 268 267 269 272 273 273 277 280 279 273 267 265 267 270 274 277 280 279 277 275 272 270 271 276 280 281 279 278 280 285 290
256 261 264 264 264 264 264 263 262 262 263 264 263 263 267 270 270 271 277 282 281 276 270 267 267 270 272 274 275 275 273 270 268 267 269 274 278 280 280 277 276 276
252 256 258 260 261 263 263 260 258 258 258 259 260 261 262 263 263 264 269 274 276 276 275 274 273 275 274 271 272 274 272 268 265 263 264 267 272 278 281 279 274 270
255 255 255 255 255 256 258 257 256 257 258 259 260 263 264 261 257 256 259 262 264 267 270 273 273 273 271 270 271 273 273 271 267 264 264 266 270 274 276 275 274 271
254 253 253 253 251 249 251 254 258 261 263 263 263 262 262 260 255 253 255 257 257 256 259 263 266 266 268 271 273 272 272 273 271 268 267 266 268 272 273 272 273 272
250 250 252 252 253 252 253 256 261 264 266 267 264 260 259 258 255 253 254 256 256 254 255 258 261 263 266 271 274 272 270 271 269 268 270 269 268 268 269 270 271 269
248 249 250 251 253 256 257 258 261 263 266 266 261 256 254 253 251 251 253 255 256 256 257 259 260 262 264 268 272 271 268 266 264 264 267 269 268 268 267 268 269 269
244 245 245 246 249 253 256 259 260 260 261 261 254 249 248 247 247 249 251 251 251 253 255 256 258 259 260 262 266 265 263 262 260 260 262 264 265 266 267 266 267 270
240 242 243 243 245 247 250 254 257 257 257 257 251 245 244 245 246 248 249 246 245 246 248 248 250 254 256 257 259 257 256 258 259 260 261 261 263 266 266 265 265 266
Height
11012 11011 11011 11011 11010 11009 11009 11008 11008 11007 11006 11006 11005 11004 11003 11003 11002 11001 11000 10999 10998 10997 10996 10996 10995 10994 10993 10992 10992 10991 10990 10989 10989 10988 10987 10986 10985 10984 10983 10982 10981 10980
11013 11013 11013 11012 11012 11011 11011 11010 11010 11009 11009 11008 11008 11007 11006 11005 11004 11004 11003 11002 11001 11000 10999 10998 10998 10997 10996 10995 10994 10993 10992 10991 10991 10990 10989 10988 10987 10986 10986 10985 10984 10983
11014 11014 11014 11014 11013 11013 11013 11012 11012 11011 11011 11011 11010 11009 11008 11007 11007 11006 11005 11005 11004 11003 11002 11001 11000 10999 10998 10997 10996 10995 10994 10993 10993 10992 10991 10990 10989 10989 10988 10988 10987 10986
11014 11014 11015 11015 11015 11014 11014 11014 11014 11013 11013 11013 11012 11011 11010 11010 11009 11008 11007 11007 11006 11006 11005 11004 11003 11002 11001 11000 10999 10998 10997 10996 10995 10994 10993 10993 10992 10991 10991 10990 10989 10988
11014 11014 11015 11015 11015 11016 11015 11015 11015 11015 11015 11014 11014 11013 11012 11012 11011 11010 11009 11008 11008 11007 11007 11006 11006 11005 11004 11003 11002 11000 10999 10999 10998 10997 10996 10995 10995 10994 10993 10992 10991 10990
11014 11014 11015 11015 11016 11016 11016 11016 11016 11016 11016 11015 11015 11014 11014 11013 11012 11012 11011 11010 11009 11009 11008 11008 11008 11007 11006 11005 11004 11003 11002 11002 11001 11000 10999 10998 10997 10996 10995 10995 10993 10992
11014 11014 11014 11015 11015 11016 11016 11016 11016 11016 11016 11016 11016 11015 11015 11014 11014 11013 11012 11011 11011 11010 11009 11009 11009 11008 11008 11007 11007 11006 11005 11004 11004 11002 11001 11000 10999 10998 10997 10996 10995 10994
11013 11013 11014 11014 11014 11015 11015 11015 11016 11016 11016 11016 11016 11015 11015 11015 11014 11014 11013 11013 11012 11011 11011 11010 11009 11009 11009 11008 11008 11008 11007 11006 11005 11004 11003 11002 11001 11000 10999 10998 10997 10996
11012 11012 11013 11013 11014 11014 11014 11014 11014 11015 11015 11015 11015 11015 11015 11015 11014 11014 11013 11013 11013 11013 11012 11011 11010 11009 11009 11009 11009 11008 11008 11007 11007 11006 11005 11004 11003 11002 11001 11001 11000 10999
11011 11011 11012 11012 11012 11013 11013 11013 11013 11014 11014 11014 11015 11015 11015 11014 11014 11014 11013 11013 11013 11013 11012 11012 11011 11010 11009 11009 11009 11009 11008 11008 11008 11007 11007 11006 11005 11004 11003 11002 11002 11001
11009 11010 11010 11010 11011 11011 11012 11012 11012 11013 11013 11013 11013 11014 11014 11014 11014 11014 11013 11013 11013 11012 11012 11012 11011 11011 11010 11009 11009 11008 11008 11008 11008 11008 11008 11008 11007 11006 11006 11005 11004 11003
11006 11007 11007 11008 11008 11009 11009 11010 11010 11010 11011 11011 11012 11012 11012 11013 11013 11013 11013 11012 11012 11012 11012 11012 11011 11011 11010 11010 11009 11008 11008 11008 11008 11008 11008 11008 11008 11008 11008 11007 11006 11005
11003 11004 11004 11005 11006 11006 11006 11007 11007 11007 11008 11009 11009 11009 11010 11011 11011 11011 11011 11011 11011 11010 11011 11011 11011 11011 11010 11010 11010 11009 11008 11008 11008 11008 11008 11008 11009 11008 11008 11008 11007 11006
11001 11001 11002 11002 11003 11003 11004 11004 11004 11005 11005 11005 11006 11006 11007 11007 11008 11009 11009 11010 11009 11009 11009 11009 11010 11010 11010 11010 11010 11009 11009 11008 11008 11008 11008 11008 11008 11008 11008 11008 11007 11007
10998 10999 10999 10999 11000 11001 11002 11002 11002 11002 11002 11002 11002 11003 11003 11004 11004 11005 11006 11007 11007 11007 11007 11007 11008 11008 11008 11008 11008 11008 11008 11008 11007 11007 11007 11007 11008 11008 11008 11007 11007 11007
10994 10995 10996 10996 10997 10998 10999 10999 10999 10999 10999 10999 10999 11000 11000 11000 11001 11001 11002 11003 11004 11004 11004 11004 11004 11005 11005 11005 11005 11006 11006 11006 11006 11006 11006 11006 11007 11007 11007 11007 11006 11006
10990 10991 10991 10992 10993 10994 10995 10995 10996 10996 10997 10997 10997 10997 10997 10997 10997 10998 10998 10999 11000 11001 11001 11001 11001 11002 11002 11002 11003 11003 11004 11004 11005 11005 11005 11005 11005 11005 11006 11006 11005 11005
10986 10986 10986 10987 10989 10990 10991 10991 10992 10993 10993 10994 10994 10993 10992 10993 10993 10994 10995 10996 10997 10997 10998 10997 10997 10998 10999 11000 11000 11001 11002 11002 11002 11002 11003 11003 11003 11004 11004 11004 11004 11004
10981 10980 10981 10982 10984 10985 10986 10987 10987 10988 10989 10990 10990 10989 10989 10989 10990 10991 10992 10993 10993 10993 10993 10993 10993 10994 10995 10996 10997 10998 10998 10998 10999 10999 10999 11000 11000 11001 11002 11002 11002 11002
10975 10975 10976 10978 10979 10980 10981 10982 10982 10982 10983 10984 10985 10986 10986 10987 10987 10988 10988 10988 10988 10988 10988 10988 10989 10991 10992 10992 10993 10994 10994 10994 10994 10995 10996 10996 10997 10998 10999 10999 10999 10999
10970 10971 10972 10973 10974 10975 10976 10976 10976 10977 10978 10980 10982 10983 10983 10984 10985 10984 10983 10982 10983 10983 10984 10984 10985 10986 10987 10988 10989 10989 10990 10990 10990 10991 10992 10992 10993 10994 10995 10995 10995 10995
10964 10965 10966 10967 10968 10968 10968 10969 10970 10972 10974 10976 10978 10978 10978 10980 10981 10980 10978 10977 10978 10980 10980 10980 10980 10981 10982 10984 10985 10985 10986 10986 10986 10987 10988 10988 10989 10990 10990 10990 10991 10991
10958 10959 10959 10961 10961 10961 10961 10962 10964 10966 10968 10971 10972 10972 10972 10975 10976 10975 10973 10973 10974 10975 10975 10974 10975 10976 10977 10979 10980 10980 10981 10981 10982 10982 10983 10984 10985 10986 10986 10986 10987 10987
10952 10952 10953 10955 10955 10954 10954 10955 10957 10959 10963 10965 10965 10965 10966 10968 10969 10968 10967 10967 10968 10969 10970 10969 10970 10971 10973 10974 10975 10975 10976 10977 10977 10978 10978 10979 10979 10981 10982 10982 10981 10981
10944 10944 10945 10948 10949 10948 10947 10948 10950 10953 10956 10958 10958 10957 10958 10959 10959 10959 10960 10960 10961 10962 10963 10964 10965 10965 10966 10968 10969 10969 10970 10971 10972 10973 10973 10973 10973 10975 10976 10976 10976 10975
10936 10936 10938 10940 10942 10941 10941 10941 10943 10946 10948 10949 10949 10950 10950 10950 10950 10951 10952 10953 10954 10955 10956 10957 10958 10958 10959 10961 10962 10963 10964 10966 10967 10967 10968 10968 10968 10969 10970 10970 10970 10970